Location: Eaton Estates
(41.3089°N, 82.0057°W)
Time: 02:09:09
(UTC+00:00)

Meteor 1-24 Rocket - Pass Details

Date: 17 June 2021
Orbit: 791 x 927 km, 81.3° (Epoch: 02 August)

Event Time Altitude Azimuth Distance (km) Brightness Sun altitude
Exits shadow 04:19:39 37° 222° (SW) 1,218 4.2 -23.3°
Maximum altitude 04:21:33 58° 283° (WNW) 932 4.0 -23.4°
Drops below altitude 10° 04:26:55 10° 2° (N) 2,419 7.1 -23.7°
Sets 04:29:24 0° 6° (N) 3,374 8.0 -23.8°
